Location: Unspecified
(40.7945°N, 0.0000°E)
Time: 03:30:06
(UTC+00:00)

Altair - Pass Details

Date: 30 January 2021
Orbit: 1501 x 1682 km, 47.2° (Epoch: 01 March)

Event Time Altitude Azimuth Distance (km) Brightness Sun altitude
Rises 02:26:16 0° 215° (SW) 4,773 - -53.2°
Reaches altitude 10° 02:29:25 10° 210° (SSW) 3,815 - -52.7°
Maximum altitude 02:38:45 52° 138° (SE) 1,978 - -51.1°
Exits shadow 02:42:32 37° 87° (E) 2,402 8.6 -50.5°
Drops below altitude 10° 02:48:23 10° 66° (ENE) 3,938 10.1 -49.5°
Sets 02:51:40 0° 62° (ENE) 4,936 10.8 -48.9°
